| time (UTC) | temp C | wind direction | speed KPH | gust KPH | rain 1hr cm | rain 24hr cm | rain mn cm | humidity % | barometer mb |
| 20260507064546 | 7 | 12 | 0.0 | 1.6 | 0.00 | 0.00 | 0.00 | 79 | 1017.4 |
| 20260507063046 | 7 | 12 | 1.6 | 6.4 | 0.00 | 0.00 | 0.00 | 79 | 1017.2 |
| 20260507061539 | 7 | 11 | 1.6 | 4.8 | 0.00 | 0.00 | 0.00 | 79 | 1017.1 |
| 20260507060033 | 7 | 11 | 1.6 | 4.8 | 0.00 | 0.00 | 0.00 | 79 | 1017.1 |
| 20260507054532 | 7 | 13 | 0.0 | 4.8 | 0.00 | 0.00 | 0.00 | 79 | 1017.1 |
| 20260507053035 | 8 | 13 | 0.0 | 3.2 | 0.00 | 0.00 | 0.00 | 78 | 1017.1 |
| 20260507051530 | 8 | 13 | 0.0 | 3.2 | 0.00 | 0.00 | 0.00 | 78 | 1016.9 |
| 20260507050032 | 8 | 13 | 0.0 | 1.6 | 0.00 | 0.00 | 0.00 | 76 | 1016.8 |
| 20260507044529 | 8 | 13 | 0.0 | 3.2 | 0.00 | 0.00 | 0.00 | 76 | 1016.7 |
| 20260507043031 | 8 | 14 | 0.0 | 4.8 | 0.00 | 0.00 | 0.00 | 75 | 1016.6 |
| 20260507041534 | 9 | 17 | 0.0 | 4.8 | 0.00 | 0.00 | 0.00 | 75 | 1016.6 |
| 20260507040027 | 9 | 22 | 0.0 | 4.8 | 0.00 | 0.00 | 0.00 | 75 | 1016.5 |
| 20260507034627 | 10 | 24 | 0.0 | 3.2 | 0.00 | 0.00 | 0.00 | 74 | 1016.4 |
| 20260507033025 | 10 | 24 | 0.0 | 3.2 | 0.00 | 0.00 | 0.00 | 73 | 1016.5 |
| 20260507031524 | 10 | 24 | 0.0 | 6.4 | 0.00 | 0.00 | 0.00 | 72 | 1016.4 |
| 20260507030024 | 10 | 74 | 0.0 | 3.2 | 0.00 | 0.00 | 0.00 | 72 | 1016.2 |
| 20260507024528 | 10 | 74 | 0.0 | 1.6 | 0.00 | 0.00 | 0.00 | 73 | 1015.8 |
| 20260507023025 | 11 | 74 | 0.0 | 0.0 | 0.00 | 0.00 | 0.00 | 72 | 1015.8 |
| 20260507021524 | 11 | 74 | 0.0 | 4.8 | 0.00 | 0.00 | 0.00 | 71 | 1015.7 |
| 20260507020026 | 11 | 86 | 0.0 | 3.2 | 0.00 | 0.00 | 0.00 | 72 | 1015.5 |
| 20260507014526 | 12 | 86 | 0.0 | 0.0 | 0.00 | 0.00 | 0.00 | 71 | 1015.3 |
| 20260507013023 | 12 | 86 | 0.0 | 0.0 | 0.00 | 0.00 | 0.00 | 70 | 1015.2 |
| 20260507011523 | 12 | 86 | 0.0 | 1.6 | 0.00 | 0.00 | 0.00 | 70 | 1015.0 |
| 20260507010032 | 13 | 86 | 1.6 | 6.4 | 0.00 | 0.00 | 0.00 | 67 | 1015.1 |
| 20260507004525 | 13 | 59 | 3.2 | 8.0 | 0.00 | 0.00 | 0.00 | 60 | 1014.9 |
| 20260507003022 | 13 | 88 | 1.6 | 4.8 | 0.00 | 0.00 | 0.00 | 65 | 1015.0 |
| 20260507001528 | 14 | 88 | 3.2 | 11.3 | 0.00 | 0.00 | 0.00 | 62 | 1014.9 |
| 20260507000027 | 14 | 76 | 8.0 | 14.5 | 0.00 | 0.00 | 0.00 | 56 | 1014.8 |
| 20260506234542 | 14 | 85 | 9.7 | 17.7 | 0.00 | 0.00 | 0.00 | 57 | 1014.8 |
| 20260506233022 | 15 | 58 | 11.3 | 17.7 | 0.00 | 0.00 | 0.00 | 56 | 1014.7 |
| 20260506231521 | 15 | 61 | 8.0 | 20.9 | 0.00 | 0.00 | 0.00 | 55 | 1014.8 |
| 20260506230019 | 15 | 57 | 4.8 | 16.1 | 0.00 | 0.00 | 0.00 | 60 | 1014.5 |
| 20260506224526 | 14 | 40 | 8.0 | 22.5 | 0.00 | 0.00 | 0.00 | 60 | 1014.1 |
| 20260506223021 | 14 | 82 | 8.0 | 22.5 | 0.00 | 0.00 | 0.00 | 60 | 1013.8 |
| 20260506221517 | 14 | 19 | 11.3 | 20.9 | 0.00 | 0.00 | 0.00 | 63 | 1013.4 |
| 20260506220030 | 14 | 80 | 11.3 | 20.9 | 0.00 | 0.00 | 0.00 | 63 | 1013.5 |
| 20260506214518 | 14 | 38 | 8.0 | 20.9 | 0.00 | 0.00 | 0.00 | 63 | 1013.9 |
| 20260506213017 | 14 | 57 | 6.4 | 20.9 | 0.00 | 0.00 | 0.00 | 64 | 1013.9 |
| 20260506211520 | 13 | 27 | 9.7 | 19.3 | 0.00 | 0.00 | 0.00 | 64 | 1014.1 |
| 20260506210015 | 13 | 28 | 6.4 | 20.9 | 0.00 | 0.00 | 0.00 | 63 | 1014.1 |
| 20260506204516 | 13 | 81 | 9.7 | 19.3 | 0.00 | 0.00 | 0.00 | 64 | 1014.6 |
| 20260506203015 | 14 | 66 | 16.1 | 20.9 | 0.00 | 0.00 | 0.00 | 62 | 1014.6 |
| 20260506201515 | 14 | 17 | 11.3 | 17.7 | 0.00 | 0.00 | 0.00 | 62 | 1014.9 |
| 20260506200012 | 14 | 28 | 11.3 | 24.1 | 0.00 | 0.00 | 0.00 | 64 | 1015.0 |
| 20260506194511 | 13 | 62 | 11.3 | 17.7 | 0.00 | 0.00 | 0.00 | 64 | 1015.3 |
| 20260506193010 | 13 | 71 | 8.0 | 20.9 | 0.00 | 0.00 | 0.00 | 65 | 1015.6 |
| 20260506191508 | 13 | 67 | 11.3 | 19.3 | 0.00 | 0.00 | 0.00 | 67 | 1015.5 |
| 20260506190007 | 13 | 24 | 8.0 | 20.9 | 0.00 | 0.00 | 0.00 | 65 | 1015.6 |
| 20260506184505 | 12 | 23 | 9.7 | 22.5 | 0.00 | 0.00 | 0.00 | 68 | 1015.6 |
| 20260506183005 | 12 | 54 | 11.3 | 20.9 | 0.00 | 0.00 | 0.00 | 65 | 1015.7 |
| 20260506181503 | 12 | 55 | 11.3 | 25.7 | 0.00 | 0.00 | 0.00 | 66 | 1016.1 |
| 20260506180113 | 12 | 19 | 8.0 | 25.7 | 0.00 | 0.00 | 0.00 | 68 | 1016.3 |
| 20260506174556 | 12 | 19 | 9.7 | 24.1 | 0.00 | 0.00 | 0.00 | 70 | 1016.5 |
| 20260506173121 | 11 | 9 | 6.4 | 17.7 | 0.00 | 0.00 | 0.00 | 72 | 1017.0 |
| 20260506171556 | 11 | 37 | 8.0 | 19.3 | 0.00 | 0.00 | 0.00 | 72 | 1017.1 |
| 20260506170055 | 11 | 58 | 12.9 | 20.9 | 0.00 | 0.00 | 0.00 | 72 | 1016.9 |
| 20260506164547 | 11 | 22 | 14.5 | 25.7 | 0.00 | 0.00 | 0.00 | 73 | 1016.6 |
| 20260506163045 | 10 | 355 | 11.3 | 24.1 | 0.00 | 0.00 | 0.00 | 75 | 1016.2 |
| 20260506161544 | 10 | 49 | 12.9 | 22.5 | 0.00 | 0.00 | 0.00 | 73 | 1015.8 |
| 20260506160050 | 10 | 61 | 12.9 | 24.1 | 0.00 | 0.00 | 0.00 | 72 | 1015.8 |
| 20260506154538 | 10 | 86 | 16.1 | 30.6 | 0.00 | 0.00 | 0.00 | 76 | 1015.4 |
| 20260506153037 | 10 | 101 | 16.1 | 24.1 | 0.00 | 0.00 | 0.00 | 75 | 1015.4 |
| 20260506151536 | 10 | 52 | 16.1 | 24.1 | 0.00 | 0.00 | 0.00 | 76 | 1015.7 |
| 20260506150034 | 10 | 59 | 14.5 | 24.1 | 0.00 | 0.00 | 0.00 | 76 | 1015.9 |
| 20260506144532 | 9 | 12 | 12.9 | 22.5 | 0.00 | 0.00 | 0.00 | 79 | 1015.3 |
| 20260506143035 | 9 | 44 | 12.9 | 25.7 | 0.00 | 0.00 | 0.00 | 79 | 1015.2 |
| 20260506141530 | 9 | 44 | 14.5 | 27.4 | 0.00 | 0.00 | 0.00 | 80 | 1014.8 |
| 20260506140029 | 8 | 88 | 12.9 | 24.1 | 0.00 | 0.00 | 0.00 | 83 | 1014.6 |
| 20260506134526 | 8 | 39 | 8.0 | 22.5 | 0.00 | 0.00 | 0.00 | 83 | 1015.2 |
| 20260506133024 | 8 | 35 | 12.9 | 24.1 | 0.00 | 0.00 | 0.00 | 84 | 1015.4 |
| 20260506131539 | 8 | 46 | 11.3 | 27.4 | 0.00 | 0.00 | 0.00 | 84 | 1015.2 |
| 20260506130033 | 8 | 42 | 6.4 | 19.3 | 0.00 | 0.00 | 0.00 | 84 | 1015.0 |
| 20260506124518 | 8 | 43 | 9.7 | 24.1 | 0.00 | 0.00 | 0.00 | 83 | 1014.8 |
| 20260506123018 | 8 | 21 | 11.3 | 22.5 | 0.00 | 0.03 | 0.00 | 83 | 1014.9 |
| 20260506121515 | 7 | 34 | 6.4 | 25.7 | 0.00 | 0.03 | 0.00 | 83 | 1014.4 |
| 20260506120017 | 7 | 19 | 8.0 | 17.7 | 0.00 | 0.03 | 0.00 | 83 | 1014.1 |
| 20260506114511 | 7 | 26 | 11.3 | 27.4 | 0.00 | 0.03 | 0.00 | 82 | 1014.0 |
| 20260506113009 | 8 | 360 | 11.3 | 24.1 | 0.00 | 0.03 | 0.00 | 82 | 1013.7 |
| 20260506111509 | 8 | 5 | 11.3 | 17.7 | 0.00 | 0.03 | 0.00 | 83 | 1013.5 |
| 20260506110006 | 8 | 55 | 6.4 | 14.5 | 0.00 | 0.03 | 0.00 | 81 | 1013.4 |
| 20260506104504 | 8 | 69 | 12.9 | 22.5 | 0.00 | 0.03 | 0.00 | 81 | 1013.0 |
| 20260506103003 | 8 | 75 | 6.4 | 20.9 | 0.00 | 0.05 | 0.00 | 83 | 1012.3 |
| 20260506101601 | 8 | 89 | 8.0 | 22.5 | 0.00 | 0.05 | 0.00 | 82 | 1012.4 |
| 20260506100057 | 8 | 68 | 12.9 | 22.5 | 0.00 | 0.05 | 0.00 | 83 | 1011.6 |
| 20260506094621 | 8 | 76 | 11.3 | 22.5 | 0.00 | 0.05 | 0.00 | 83 | 1011.2 |
| 20260506093054 | 8 | 76 | 12.9 | 24.1 | 0.00 | 0.10 | 0.00 | 84 | 1010.8 |
| 20260506091553 | 8 | 88 | 16.1 | 22.5 | 0.00 | 0.10 | 0.00 | 85 | 1010.7 |
| 20260506090050 | 8 | 46 | 11.3 | 20.9 | 0.00 | 0.10 | 0.00 | 86 | 1011.2 |
| 20260506084547 | 8 | 59 | 9.7 | 16.1 | 0.00 | 0.10 | 0.00 | 87 | 1011.0 |
| 20260506083042 | 8 | 46 | 4.8 | 19.3 | 0.00 | 1.07 | 0.00 | 88 | 1010.8 |
| 20260506081538 | 8 | 23 | 9.7 | 19.3 | 0.00 | 1.07 | 0.00 | 89 | 1010.4 |
| 20260506073033 | 8 | 28 | 8.0 | 22.5 | 0.00 | 1.14 | 0.00 | 90 | 1010.1 |
| 20260506071534 | 8 | 42 | 11.3 | 29.0 | 0.00 | 1.14 | 0.00 | 89 | 1010.1 |